This is the latest recevied weather packets stored in our database for station/object K4MUW-4. If no packets are shown the sender has not sent any weather packets the latest 10 day(s).
| Time | Temp. | Humidity | Pressure | Rain* | Wind** | Luminosity | Snow |
|---|---|---|---|---|---|---|---|
| 1777909587 | 19.44° C | 43% | 1015 hPa | 0 mm | 1.79 m/s, 188° | - | - |
| 1777909287 | 18.89° C | 45% | 1015 hPa | 0 mm | 1.79 m/s, 191° | - | - |
| 1777908986 | 18.89° C | 47% | 1015 hPa | 0 mm | 1.79 m/s, 177° | - | - |
| 1777908681 | 18.89° C | 47% | 1014 hPa | 0 mm | 1.34 m/s, 188° | - | - |
| 1777908381 | 18.33° C | 46% | 1014 hPa | 0 mm | 1.79 m/s, 182° | - | - |
| 1777908080 | 18.33° C | 46% | 1014 hPa | 0 mm | 2.68 m/s, 202° | - | - |
| 1777907780 | 17.78° C | 45% | 1014 hPa | 0 mm | 1.34 m/s, 205° | - | - |
| 1777907479 | 17.78° C | 49% | 1014 hPa | 0 mm | 2.24 m/s, 186° | - | - |
| 1777907179 | 17.78° C | 52% | 1014 hPa | 0 mm | 1.34 m/s, 208° | - | - |
| 1777906879 | 17.22° C | 54% | 1015 hPa | 0 mm | 3.13 m/s, 185° | - | - |
| 1777906578 | 17.22° C | 55% | 1015 hPa | 0 mm | 1.79 m/s, 203° | - | - |
| 1777906278 | 16.67° C | 59% | 1015 hPa | 0 mm | 1.79 m/s, 220° | - | - |
| 1777905677 | 16.11° C | 56% | 1014 hPa | 0 mm | 1.34 m/s, 239° | - | - |
| 1777905377 | 15.56° C | 67% | 1014 hPa | 0 mm | 1.79 m/s, 219° | - | - |
| 1777905076 | 15.56° C | 67% | 1014 hPa | 0 mm | 1.34 m/s, 160° | - | - |
| 1777904776 | 15° C | 68% | 1014 hPa | 0 mm | 1.79 m/s, 168° | - | - |
| 1777904476 | 14.44° C | 70% | 1014 hPa | 0 mm | 1.34 m/s, 189° | - | - |
| 1777904175 | 14.44° C | 72% | 1015 hPa | 0 mm | 1.34 m/s, 201° | - | - |
| 1777903875 | 13.89° C | 73% | 1015 hPa | 0 mm | 0 m/s | - | - |
| 1777903574 | 13.33° C | 74% | 1015 hPa | 0 mm | 0 m/s | - | - |
| 1777903274 | 13.33° C | 75% | 1015 hPa | 0 mm | 0 m/s | - | - |
| 1777902973 | 12.78° C | 75% | 1015 hPa | 0 mm | 0 m/s | - | - |
| 1777902673 | 12.78° C | 76% | 1015 hPa | 0 mm | 1.79 m/s, 204° | - | - |
| 1777902373 | 12.22° C | 77% | 1014 hPa | 0 mm | 0 m/s | - | - |
| 1777902072 | 12.22° C | 78% | 1014 hPa | 0 mm | 0 m/s | - | - |
* Rain latest hour (hover to see other rain measurements)
** Current wind speed in m/s (hover to see current wind gust speed)